Regional Weather Roundup
Issued by NWS

Home | Current Version | Previous Version | Graphics & Text | Print | Product List | Glossary On
Versions: 1 2 3 4 5 6 7 8 9 10 11 12 13 14 15 16 17 18 19 20 21 22 23 24 25 26 27 28 29 30 31 32 33 34 35 36 37 38 39 40 41 42 43 44 45 46 47 48 49 50
000
ASUS43 KBIS 210602
RWRND

NORTH DAKOTA REGIONAL WEATHER ROUNDUP
NATIONAL WEATHER SERVICE BISMARCK ND
100 AM CDT FRI JUL 21 2017

NOTE: "FAIR" INDICATES FEW OR NO CLOUDS BELOW 12,000 FEET WITH NO
SIGNIFICANT WEATHER AND/OR OBSTRUCTIONS TO VISIBILITY.


NDZ001>003-009>011-017-210700-
NORTHWEST NORTH DAKOTA

CITY           SKY/WX    TMP DP  RH WIND       PRES   REMARKS
WILLISTON      CLOUDY    75  59  57 E13G20    29.79F
6HR MIN TEMP:  75; 6HR MAX TEMP:  88;

MINOT          PTCLDY    70  62  76 SE9       29.83F
MINOT AFB      PTCLDY    69  62  78 S10       29.81S
$$

NDZ018>021-031>035-040>046-210700-
SOUTHWEST NORTH DAKOTA

CITY           SKY/WX    TMP DP  RH WIND       PRES   REMARKS
BISMARCK       CLOUDY    75  60  59 S18G29    29.80F
6HR MIN TEMP:  70; 6HR MAX TEMP:  87; 6HR PCP:  0.12;

DICKINSON      PTCLDY    69  61  75 SE13      29.81F
GARRISON         N/A     71  57  61 SE10      29.85S
6HR MIN TEMP:  70; 6HR MAX TEMP:  80; 6HR PCP:  0.01;

HETTINGER ARPT CLOUDY    73  59  61 S20G26    29.87R
$$

NDZ004>008-012>016-024-026-027-054-210700-
NORTHEAST NORTH DAKOTA

CITY           SKY/WX    TMP DP  RH WIND       PRES   REMARKS
GRAND FORKS    CLOUDY    73  62  68 SE6       29.86F
GRND FRKS AFB  CLOUDY    68  63  83 S6        29.87F
DEVILS LAKE    CLOUDY    73  68  84 SE6       29.87F
$$

NDZ022-023-025-028>030-036>039-047>053-210700-
SOUTHEAST NORTH DAKOTA

CITY           SKY/WX    TMP DP  RH WIND       PRES   REMARKS
FARGO          CLOUDY    78  67  68 SE13      29.88S
6HR MIN TEMP:  75; 6HR MAX TEMP:  86;

JAMESTOWN      CLOUDY    72  65  78 E7        29.88S
$$




USA.gov is the U.S. government's official web portal to all federal, state and local government web resources and services.